User: anonymous   Login
Location: Caltech
(34.1382°N, 118.1253°W)
Time: 06:05:49
(UTC-08:00)
Language:

UOSAT-12 - Orbit

View from above orbital plane
View from above orbital plane
View from above satellite
View from above satellite

Ground track
Ground track

The orbit data is extracted from the following two-line orbital elements,

1 25693U 99021A   16343.18992690 -.00000034  00000-0  14155-4 0  9995
2 25693  64.5563 354.3186 0015639 328.5446  31.4723 14.80702070951882
Epoch (UTC): 08 December 2016 04:33:29
Eccentricity: 0.0015639
inclination: 64.5563°
perigee height: 616 km
apogee height: 638 km
right ascension of ascending node: 354.3186°
argument of perigee: 328.5446°
revolutions per day: 14.80702070
mean anomaly at epoch: 31.4723°
orbit number at epoch: 95188

The dashed part of the orbit path shows where the satellite is in the earth's shadow,  

DLR